Burbank, CA

6:47 PM PDT on June 22, 2018 (GMT -0700)
Burbank-Glendale-Pasadena

Weather History for KBUR - October, 2017

Change the Weather History Date:

Tuesday, October 10, 2017

  Actual Average Record
Temperature  
Mean Temperature 72 °F 68 °F  
Max Temperature 87 °F 81 °F 105 °F (1991)
Min Temperature 57 °F 56 °F 43 °F (1949)
Degree Days  
Heating Degree Days 0 1  
Month to date heating degree days 0 10  
Since 1 July heating degree days 3 16  
Cooling Degree Days 7 4  
Month to date cooling degree days 65 47  
Year to date cooling degree days 1692 1178  
Growing Degree Days 22 (Base 50)    
Moisture  
Dew Point 23 °F    
Average Humidity 26    
Maximum Humidity 45    
Minimum Humidity 6    
Precipitation  
Precipitation 0.00 in 0.03 in 0.02 in (1947)
Month to date precipitation 0.00 0.25  
Year to date precipitation 9.62 13.12  
Sea Level Pressure  
Sea Level Pressure 29.88 in    
Wind  
Wind Speed 3 mph (SSE)    
Max Wind Speed 13 mph    
Max Gust Speed 16 mph    
Visibility 10 miles    
Events      
T = Trace of Precipitation, MM = Missing Value Source: NWS Daily Summary

Daily Weather History Graph

Daily Weather History Graph

Search for Another Location

Airport or City:

Astronomy

Oct. 10, 2017 Rise Set
Actual Time 6:55 AM PDT 6:25 PM PDT
Civil Twilight 6:29 AM PDT 6:50 PM PDT
Nautical Twilight 6:00 AM PDT 7:19 PM PDT
Astronomical Twilight 5:31 AM PDT 7:48 PM PDT
Moon 10:43 PM PDT (10/10) 12:06 PM PDT (10/10)
Length of Visible Light 12h 20m
Length of Day
11h 30m
Waning Gibbous, 70% of the Moon is Illuminated
Oct 10
Waning Gibbous
Oct 12
Last Quarter
Oct 19
New
Oct 27
First Quarter
Nov 3
Full

Hourly Weather History & Observations

Time (PDT) Temp. Dew Point Humidity Pressure Visibility Wind Dir Wind Speed Gust Speed Precip Events Conditions
12:53 AM 66.0 °F 12.9 °F 13% 29.91 in 10.0 mi Calm Calm - N/A   Clear
1:53 AM 66.0 °F 15.1 °F 14% 29.90 in 10.0 mi SE 3.5 mph - N/A   Clear
2:53 AM 63.0 °F 23.0 °F 22% 29.91 in 10.0 mi East 3.5 mph - N/A   Clear
3:53 AM 59.0 °F 25.0 °F 27% 29.90 in 10.0 mi Calm Calm - N/A   Clear
4:53 AM 59.0 °F 19.9 °F 22% 29.90 in 10.0 mi NNW 3.5 mph - N/A   Clear
5:53 AM 63.0 °F 12.0 °F 14% 29.91 in 10.0 mi Variable 4.6 mph - N/A   Clear
6:53 AM 57.0 °F 23.0 °F 27% 29.93 in 10.0 mi NNE 3.5 mph - N/A   Clear
7:53 AM 61.0 °F 21.0 °F 21% 29.94 in 10.0 mi Calm Calm - N/A   Clear
8:53 AM 66.0 °F 23.0 °F 20% 29.95 in 10.0 mi Calm Calm - N/A   Clear
9:53 AM 73.0 °F 25.0 °F 17% 29.94 in 10.0 mi Calm Calm - N/A   Clear
10:53 AM 79.0 °F 10.0 °F 7% 29.93 in 10.0 mi Calm Calm - N/A   Clear
11:53 AM 81.0 °F 9.0 °F 6% 29.91 in 10.0 mi South 5.8 mph - N/A   Clear
12:53 PM 84.0 °F 9.0 °F 6% 29.89 in 10.0 mi Variable 3.5 mph - N/A   Clear
1:53 PM 86.0 °F 12.9 °F 7% 29.85 in 10.0 mi Variable 4.6 mph - N/A   Clear
2:53 PM 84.9 °F 24.1 °F 11% 29.84 in 10.0 mi South 9.2 mph - N/A   Clear
3:53 PM 84.9 °F 19.9 °F 9% 29.83 in 10.0 mi SSW 10.4 mph - N/A   Clear
4:53 PM 82.9 °F 17.1 °F 9% 29.82 in 10.0 mi South 8.1 mph - N/A   Clear
5:53 PM 79.0 °F 19.0 °F 11% 29.83 in 10.0 mi South 5.8 mph - N/A   Clear
6:53 PM 75.9 °F 28.0 °F 17% 29.85 in 10.0 mi Calm Calm - N/A   Clear
7:53 PM 75.0 °F 30.9 °F 20% 29.85 in 10.0 mi Calm Calm - N/A   Clear
8:53 PM 73.0 °F 37.0 °F 27% 29.86 in 10.0 mi NW 3.5 mph - N/A   Clear
9:53 PM 69.1 °F 36.0 °F 30% 29.86 in 10.0 mi Calm Calm - N/A   Clear
10:53 PM 66.9 °F 45.0 °F 45% 29.86 in 10.0 mi Calm Calm - N/A   Clear
11:53 PM 66.0 °F 44.1 °F 45% 29.85 in 10.0 mi ESE 3.5 mph - N/A   Clear